Regional Weather Roundup
Issued by NWS

Home | Current Version | Previous Version | Text Only | Print | Product List | Glossary On
Versions: 1 2 3 4 5 6 7 8 9 10 11 12 13 14 15 16 17 18 19 20 21 22 23 24 25 26 27 28 29 30 31 32 33 34 35 36 37 38 39 40 41 42 43 44 45 46 47 48 49 50
000
ASUS46 KSEW 011510
RWRWA

WASHINGTON REGIONAL WEATHER ROUNDUP
NATIONAL WEATHER SERVICE SEATTLE WA
700 AM PST SUN MAR 01 2015

NOTE:"FAIR" INDICATES FEW OR NO CLOUDS BELOW 12,000 FEET WITH NO
SIGNIFICANT WEATHER AND/OR OBSTRUCTIONS TO VISIBILITY.

WAZ505-507>509-011600-
SEATTLE, TACOMA, EVERETT, AND VICINITY

CITY           SKY/WX    TMP DP  RH WIND       PRES   REMARKS
EVERETT        CLEAR     36  29  75 CALM      30.22F
BOEING FIELD   CLEAR     35  29  78 SE7       30.24F
RENTON         CLEAR     33  31  92 E3        30.24F
SEATAC AIRPORT CLEAR     36  28  73 SE5       30.23F
JBLM-MCCHORD   CLEAR     28  28  99 CALM      30.23F
PUYALLUP       FAIR      27  27 100 CALM      30.23S
BREMERTON      CLEAR     27  25  93 CALM      30.25R
JBLM-FT LEWIS  CLEAR     27  27  99 SE3       30.22F
TACOMA NARROWS CLEAR     34  31  88 E3        30.23F
$$

WAZ001-503-506-510-514-515-011600-
NORTH INTERIOR

CITY           SKY/WX    TMP DP  RH WIND       PRES   REMARKS
BELLINGHAM     PTCLDY    29  26  89 CALM      30.23R
FRIDAY HARBOR  CLEAR     31  30  96 CALM      30.24S
EASTSOUND      PTCLDY    32  32 100 CALM      30.22S
PORT ANGELES   CLEAR     35  26  69 SW8       30.22R
NAS WHIDBEY    PTCLDY    35  30  82 E7        30.24R
ARLINGTON      CLEAR     28  23  80 CALM      30.25F
BURLINGTON     CLEAR     32  30  93 CALM      30.25R
$$

WAZ020-022-039-040-504-511-512-011600-
SOUTHWEST INTERIOR

CITY           SKY/WX    TMP DP  RH WIND       PRES   REMARKS
SHELTON        CLEAR     24  22  91 CALM      30.21F
OLYMPIA        CLEAR     27  25  92 SE5       30.23F
CHEHALIS       FOG       28  28 100 CALM      30.24S VSB<1/4
KELSO          CLEAR     28  23  80 CALM      30.29R
VANCOUVER      CLEAR     28  24  85 CALM      30.25S
SCAPPOOSE, OR  CLEAR     27  25  92 SW3       30.24S
PORTLAND, OR   PTCLDY    33  29  85 CALM      30.25S
$$

WAZ021-516-517-011600-
WASHINGTON COAST

CITY           SKY/WX    TMP DP  RH WIND       PRES   REMARKS
FORKS          CLEAR     27  25  92 E3        30.22S
HOQUIAM        CLEAR     33  30  88 NE7       30.22S
ASTORIA, OR    CLEAR     31  29  92 SE3       30.22S
$$

WAZ019-023-024-040-518-519-011600-
CASCADE MOUNTAINS AND COLUMBIA GORGE

CITY           SKY/WX    TMP DP  RH WIND       PRES   REMARKS
TROUTDALE, OR  CLEAR     37  27  67 NE7       30.23R
THE DALLES, OR CLEAR     25  21  85 E3        30.30S
$$

WAZ026-027-041>044-520-521-011600-
EAST SLOPES

CITY           SKY/WX    TMP DP  RH WIND       PRES   REMARKS
OMAK           PTCLDY    24  17  74 W3        30.25S
WENATCHEE      CLEAR     30  24  78 NW3       30.25S
ELLENSBURG     CLEAR     21  17  84 CALM      30.23S
YAKIMA         CLEAR     24  18  77 W5        30.27R
$$

WAZ028-034-035-011600-
COLUMBIA BASIN

CITY           SKY/WX    TMP DP  RH WIND       PRES   REMARKS
EPHRATA        CLEAR     23  19  85 N6        30.23F
MOSES LAKE     CLEAR     21  17  84 CALM      30.25S
PASCO          CLEAR     16  14  92 CALM      30.30R
HERMISTON, OR  CLEAR     18  15  88 SE3       30.28R
$$

WAZ036>038-011600-
NORTHEAST WASHINGTON

CITY           SKY/WX    TMP DP  RH WIND       PRES   REMARKS
SPOKANE GEIGER MOCLDY    22  11  62 CALM      30.22R
SPOKANE FELTS  CLEAR     22  15  75 CALM      30.26S
FAIRCHILD AFB  CLEAR     21  11  65 NE5       30.21R
COEURDALENE,ID CLEAR     21  10  63 E7        30.23S
DEER PARK      PTCLDY    15  11  83 MISG      30.24R
$$

WAZ029>033-011600-
SOUTHEAST WASHINGTON

CITY           SKY/WX    TMP DP  RH WIND       PRES   REMARKS
PULLMAN        CLEAR     26   9  48 E10       30.22R WCI  16
LEWISTON, ID   CLEAR     26  18  71 CALM      30.27R
WALLA WALLA    CLEAR     27  18  69 E5        30.24R
PENDLETON, OR  CLEAR     27  18  69 SE10      30.23S WCI  17
$$



USA.gov is the U.S. government's official web portal to all federal, state and local government web resources and services.